DW1770 Weather Reports


Display with metric or nautical units.
time (UTC)temp
F
wind
direction
speed
MPH
gust
MPH
rain 1hr
in
rain 24hr
in
rain mn
in
humidity
%
barometer
mb
20240221113041 17 0.0 0.0 0.00 0.00 0.00 65 1032.9
20240221111558 17 0.0 0.0 0.00 0.00 0.00 65 1032.8
20240221110042 17 0.0 0.0 0.00 0.00 0.00 65 1032.9
20240221104549 17 0.0 0.0 0.00 0.00 0.00 65 1032.7
20240221103045 18 0.0 0.0 0.00 0.00 0.00 66 1032.5
20240221101552 18 0.0 0.0 0.00 0.00 0.00 67 1032.3
20240221100048 18 0.0 0.0 0.00 0.00 0.00 67 1032.4
20240221094551 18 0.0 0.0 0.00 0.00 0.00 68 1032.2
20240221093051 18 0.0 0.0 0.00 0.00 0.00 68 1032.2
20240221091550 18 0.0 0.0 0.00 0.00 0.00 68 1032.1
20240221090050 18 0.0 0.0 0.00 0.00 0.00 69 1032.0
20240221084549 18 0.0 0.0 0.00 0.00 0.00 69 1031.8
20240221083050 19 0.0 0.0 0.00 0.00 0.00 70 1031.8
20240221081551 19 0.0 0.0 0.00 0.00 0.00 69 1031.7
20240221080055 19 0.0 0.0 0.00 0.00 0.00 70 1031.7
20240221074552 19 0.0 0.0 0.00 0.00 0.00 70 1031.9
20240221073050 19 0.0 0.0 0.00 0.00 0.00 71 1032.1
20240221071545 19 0.0 0.0 0.00 0.00 0.00 72 1032.1
20240221070054 19 0.0 0.0 0.00 0.00 0.00 72 1032.1
20240221064552 20 0.0 0.0 0.00 0.00 0.00 72 1032.2
20240221063049 20 0.0 0.0 0.00 0.00 0.00 72 1032.3
20240221061543 20 0.0 0.0 0.00 0.00 0.00 72 1032.4
20240221060051 20 0.0 0.0 0.00 0.00 0.00 72 1032.4
20240221054547 20 0.0 0.0 0.00 0.00 0.00 72 1032.2
20240221053049 20 0.0 0.0 0.00 0.00 0.00 71 1032.4
20240221051553 21 0.0 0.0 0.00 0.00 0.00 70 1032.4
20240221050054 22 0.0 0.0 0.00 0.00 0.00 70 1032.1
20240221044552 22 0.0 0.0 0.00 0.00 0.00 70 1032.1
20240221043050 22 0.0 0.0 0.00 0.00 0.00 69 1032.1
20240221041602 22 0.0 0.0 0.00 0.00 0.00 68 1032.0
20240221040055 23 0.0 0.0 0.00 0.00 0.00 67 1032.0
20240221034548 23 0.0 0.0 0.00 0.00 0.00 66 1032.0
20240221033052 24 0.0 0.0 0.00 0.00 0.00 65 1032.0
20240221031547 24 0.0 0.0 0.00 0.00 0.00 65 1032.0
20240221030043 24 0.0 0.0 0.00 0.00 0.00 63 1031.9
20240221024547 24 0.0 0.0 0.00 0.00 0.00 63 1031.9
20240221023045 25 0.0 0.0 0.00 0.00 0.00 62 1031.8
20240221021549 25 0.0 0.0 0.00 0.00 0.00 61 1031.7
20240221020048 26 0.0 0.0 0.00 0.00 0.00 59 1031.7
20240221014602 26 0.0 0.0 0.00 0.00 0.00 58 1031.6
20240221013042 27 0.0 0.0 0.00 0.00 0.00 57 1031.5
20240221011606 27 0.0 0.0 0.00 0.00 0.00 57 1031.5
20240221010106 27 0.0 0.0 0.00 0.00 0.00 56 1031.3
20240221004551 27 0.0 0.0 0.00 0.00 0.00 56 1031.3
20240221003059 27 0.0 0.0 0.00 0.00 0.00 55 1031.1
20240221001549 28 0.0 0.0 0.00 0.00 0.00 55 1031.0
20240221000049 29 0.0 0.0 0.00 0.00 0.00 53 1030.8
20240220234558 29 0.0 0.0 0.00 0.00 0.00 51 1030.7
20240220233054 30 0.0 0.0 0.00 0.00 0.00 50 1030.7
20240220231600 30 0.0 0.0 0.00 0.00 0.00 49 1030.5
20240220230104 31 0.0 0.0 0.00 0.00 0.00 47 1030.3
20240220224558 32 0.0 0.0 0.00 0.00 0.00 44 1030.2
20240220223057 33 0.0 0.0 0.00 0.00 0.00 42 1030.1
20240220221549 34 0.0 0.0 0.00 0.00 0.00 41 1030.0
20240220220047 35 0.0 0.0 0.00 0.00 0.00 40 1029.8
20240220214551 36 0.0 0.0 0.00 0.00 0.00 38 1029.8
20240220213051 36 0.0 0.0 0.00 0.00 0.00 38 1029.7
20240220211551 36 0.0 0.0 0.00 0.00 0.00 39 1029.6
20240220210045 36 0.0 0.0 0.00 0.00 0.00 38 1029.6
20240220204550 36 0.0 0.0 0.00 0.00 0.00 38 1029.6
20240220203051 36 0.0 0.0 0.00 0.00 0.00 38 1029.5
20240220201542 36 0.0 0.0 0.00 0.00 0.00 37 1029.5
20240220200041 35 0.0 0.0 0.00 0.00 0.00 38 1029.4
20240220194548 35 0.0 0.0 0.00 0.00 0.00 37 1029.4
20240220193043 36 0.0 0.0 0.00 0.00 0.00 38 1029.4
20240220191548 35 0.0 0.0 0.00 0.00 0.00 37 1029.5
20240220190053 35 0.0 0.0 0.00 0.00 0.00 36 1029.6
20240220184556 35 0.0 0.0 0.00 0.00 0.00 40 1029.6
20240220183055 34 0.0 0.0 0.00 0.00 0.00 37 1029.8
20240220181601 34 0.0 0.0 0.00 0.00 0.00 38 1029.8
20240220180100 34 0.0 0.0 0.00 0.00 0.00 37 1029.9
20240220174555 34 0.0 0.0 0.00 0.00 0.00 37 1030.1
20240220173047 33 0.0 0.0 0.00 0.00 0.00 39 1030.1
20240220171605 33 0.0 0.0 0.00 0.00 0.00 35 1030.3
20240220170058 34 0.0 0.0 0.00 0.00 0.00 37 1030.4
20240220164546 32 0.0 0.0 0.00 0.00 0.00 40 1030.5
20240220163055 33 0.0 0.0 0.00 0.00 0.00 37 1030.7
20240220161557 32 0.0 0.0 0.00 0.00 0.00 37 1030.7
20240220160101 31 0.0 0.0 0.00 0.00 0.00 38 1030.9
20240220154558 29 0.0 0.0 0.00 0.00 0.00 42 1030.9
20240220153103 27 0.0 0.0 0.00 0.00 0.00 43 1030.9
20240220151552 28 0.0 0.0 0.00 0.00 0.00 39 1031.1
20240220150043 27 0.0 0.0 0.00 0.00 0.00 44 1031.2
20240220144553 25 0.0 0.0 0.00 0.00 0.00 46 1031.2
20240220143048 24 0.0 0.0 0.00 0.00 0.00 45 1031.3
20240220141551 22 0.0 0.0 0.00 0.00 0.00 48 1031.4
20240220140045 21 0.0 0.0 0.00 0.00 0.00 50 1031.4
20240220134549 20 0.0 0.0 0.00 0.00 0.00 50 1031.4
20240220133049 20 0.0 0.0 0.00 0.00 0.00 53 1031.1
20240220131550 18 0.0 0.0 0.00 0.00 0.00 56 1031.0
20240220130102 16 0.0 0.0 0.00 0.00 0.00 61 1030.9
20240220124550 15 0.0 0.0 0.00 0.00 0.00 64 1030.5
20240220123046 13 0.0 0.0 0.00 0.00 0.00 67 1030.5
20240220121601 12 0.0 0.0 0.00 0.00 0.00 68 1030.3
20240220120101 12 0.0 0.0 0.00 0.00 0.00 67 1030.0
20240220114551 13 0.0 0.0 0.00 0.00 0.00 65 1029.6